| time (UTC) | temp C | wind direction | speed KPH | gust KPH | rain 1hr cm | rain 24hr cm | rain mn cm | humidity % | barometer mb |
| 20260903234540 | 17 | 297 | 6.4 | 17.7 | 0.00 | 0.05 | 0.00 | 92 | 1017.8 |
| 20260903233043 | 17 | 253 | 4.8 | 16.1 | 0.00 | 0.05 | 0.00 | 92 | 1017.9 |
| 20260903231535 | 17 | 245 | 8.0 | 24.1 | 0.00 | 0.05 | 0.00 | 92 | 1017.9 |
| 20260903230035 | 17 | 244 | 6.4 | 16.1 | 0.00 | 0.05 | 0.00 | 92 | 1018.0 |
| 20260903224534 | 17 | 255 | 11.3 | 29.0 | 0.00 | 0.05 | 0.00 | 91 | 1017.9 |
| 20260903223029 | 17 | 254 | 6.4 | 24.1 | 0.00 | 0.05 | 0.00 | 92 | 1018.2 |
| 20260903221526 | 17 | 244 | 8.0 | 20.9 | 0.00 | 0.05 | 0.00 | 92 | 1018.5 |
| 20260903220024 | 17 | 245 | 4.8 | 24.1 | 0.00 | 0.05 | 0.00 | 92 | 1018.7 |
| 20260903214533 | 17 | 252 | 4.8 | 22.5 | 0.00 | 0.05 | 0.05 | 91 | 1018.8 |
| 20260903213035 | 17 | 250 | 9.7 | 25.7 | 0.03 | 0.05 | 0.05 | 92 | 1018.8 |
| 20260903211522 | 17 | 240 | 6.4 | 19.3 | 0.03 | 0.05 | 0.05 | 92 | 1018.9 |
| 20260903210022 | 17 | 244 | 4.8 | 20.9 | 0.03 | 0.05 | 0.05 | 93 | 1018.9 |
| 20260903204521 | 17 | 240 | 4.8 | 19.3 | 0.05 | 0.05 | 0.05 | 93 | 1018.9 |
| 20260903203020 | 17 | 271 | 6.4 | 19.3 | 0.03 | 0.03 | 0.03 | 92 | 1018.9 |
| 20260903201520 | 17 | 254 | 9.7 | 25.7 | 0.03 | 0.03 | 0.03 | 92 | 1018.8 |
| 20260903200020 | 17 | 244 | 4.8 | 22.5 | 0.03 | 0.03 | 0.03 | 92 | 1019.0 |
| 20260903194519 | 17 | 238 | 9.7 | 17.7 | 0.00 | 0.00 | 0.00 | 91 | 1019.1 |
| 20260903193020 | 17 | 223 | 6.4 | 22.5 | 0.00 | 0.00 | 0.00 | 90 | 1018.9 |
| 20260903191528 | 17 | 234 | 8.0 | 22.5 | 0.00 | 0.00 | 0.00 | 90 | 1019.0 |
| 20260903190018 | 17 | 248 | 4.8 | 17.7 | 0.00 | 0.00 | 0.00 | 90 | 1019.0 |
| 20260903184517 | 17 | 240 | 6.4 | 22.5 | 0.00 | 0.00 | 0.00 | 90 | 1019.0 |
| 20260903183025 | 17 | 283 | 6.4 | 22.5 | 0.00 | 0.00 | 0.00 | 90 | 1019.1 |
| 20260903181515 | 17 | 251 | 8.0 | 22.5 | 0.00 | 0.00 | 0.00 | 90 | 1019.1 |
| 20260903180025 | 17 | 226 | 8.0 | 27.4 | 0.00 | 0.00 | 0.00 | 90 | 1019.0 |
| 20260903174513 | 17 | 246 | 8.0 | 22.5 | 0.00 | 0.00 | 0.00 | 90 | 1018.9 |
| 20260903173013 | 17 | 256 | 8.0 | 20.9 | 0.00 | 0.00 | 0.00 | 90 | 1019.2 |
| 20260903171512 | 17 | 234 | 6.4 | 19.3 | 0.00 | 0.00 | 0.00 | 90 | 1019.0 |
| 20260903170013 | 17 | 267 | 6.4 | 19.3 | 0.00 | 0.00 | 0.00 | 90 | 1019.0 |
| 20260903164510 | 17 | 233 | 6.4 | 17.7 | 0.00 | 0.00 | 0.00 | 90 | 1018.9 |
| 20260903163010 | 17 | 249 | 6.4 | 16.1 | 0.00 | 0.00 | 0.00 | 89 | 1018.8 |
| 20260903161509 | 17 | 269 | 4.8 | 17.7 | 0.00 | 0.00 | 0.00 | 89 | 1018.7 |
| 20260903160009 | 17 | 239 | 8.0 | 22.5 | 0.00 | 0.00 | 0.00 | 89 | 1019.0 |
| 20260903154508 | 17 | 237 | 8.0 | 17.7 | 0.00 | 0.00 | 0.00 | 90 | 1019.0 |
| 20260903153008 | 17 | 283 | 6.4 | 17.7 | 0.00 | 0.00 | 0.00 | 91 | 1019.1 |
| 20260903151510 | 17 | 234 | 6.4 | 25.7 | 0.00 | 0.00 | 0.00 | 91 | 1019.2 |
| 20260903150014 | 17 | 254 | 8.0 | 19.3 | 0.00 | 0.00 | 0.00 | 91 | 1019.1 |
| 20260903144513 | 17 | 273 | 4.8 | 17.7 | 0.00 | 0.00 | 0.00 | 91 | 1019.3 |
| 20260903143005 | 17 | 236 | 4.8 | 19.3 | 0.00 | 0.00 | 0.00 | 90 | 1019.3 |
| 20260903141507 | 17 | 313 | 9.7 | 22.5 | 0.00 | 0.00 | 0.00 | 89 | 1019.2 |
| 20260903140010 | 17 | 249 | 9.7 | 20.9 | 0.00 | 0.00 | 0.00 | 88 | 1019.2 |
| 20260903134502 | 17 | 253 | 4.8 | 19.3 | 0.00 | 0.00 | 0.00 | 87 | 1019.1 |
| 20260903133001 | 17 | 244 | 9.7 | 25.7 | 0.00 | 0.00 | 0.00 | 85 | 1019.0 |
| 20260903131501 | 18 | 248 | 8.0 | 24.1 | 0.00 | 0.00 | 0.00 | 84 | 1019.0 |
| 20260903130108 | 18 | 254 | 4.8 | 25.7 | 0.00 | 0.00 | 0.00 | 84 | 1019.0 |
| 20260903124609 | 18 | 239 | 6.4 | 24.1 | 0.00 | 0.00 | 0.00 | 84 | 1018.9 |
| 20260903123058 | 17 | 245 | 8.0 | 27.4 | 0.00 | 0.00 | 0.00 | 84 | 1018.9 |
| 20260903121558 | 18 | 224 | 9.7 | 30.6 | 0.00 | 0.00 | 0.00 | 83 | 1018.8 |
| 20260903120122 | 18 | 289 | 8.0 | 30.6 | 0.00 | 0.00 | 0.00 | 82 | 1018.8 |
| 20260903114604 | 18 | 238 | 9.7 | 27.4 | 0.00 | 0.00 | 0.00 | 81 | 1018.9 |
| 20260903113055 | 18 | 285 | 6.4 | 32.2 | 0.00 | 0.00 | 0.00 | 80 | 1018.8 |
| 20260903111554 | 18 | 232 | 4.8 | 37.0 | 0.00 | 0.00 | 0.00 | 79 | 1018.8 |
| 20260903110100 | 18 | 254 | 9.7 | 29.0 | 0.00 | 0.00 | 0.00 | 77 | 1018.7 |
| 20260903104553 | 18 | 319 | 8.0 | 25.7 | 0.00 | 0.00 | 0.00 | 78 | 1018.3 |
| 20260903103047 | 17 | 244 | 9.7 | 24.1 | 0.00 | 0.00 | 0.00 | 78 | 1018.4 |
| 20260903101549 | 17 | 263 | 8.0 | 20.9 | 0.00 | 0.00 | 0.00 | 77 | 1018.5 |
| 20260903100048 | 17 | 215 | 11.3 | 32.2 | 0.00 | 0.00 | 0.00 | 79 | 1018.6 |
| 20260903094546 | 17 | 218 | 11.3 | 25.7 | 0.00 | 0.00 | 0.00 | 81 | 1018.6 |
| 20260903093044 | 17 | 238 | 9.7 | 33.8 | 0.00 | 0.00 | 0.00 | 80 | 1018.6 |
| 20260903091540 | 17 | 213 | 9.7 | 29.0 | 0.00 | 0.00 | 0.00 | 81 | 1018.8 |
| 20260903090042 | 17 | 234 | 9.7 | 29.0 | 0.00 | 0.00 | 0.00 | 80 | 1018.6 |
| 20260903084540 | 17 | 30 | 12.9 | 38.6 | 0.00 | 0.00 | 0.00 | 79 | 1018.6 |
| 20260903083043 | 16 | 259 | 9.7 | 27.4 | 0.00 | 0.00 | 0.00 | 79 | 1018.4 |
| 20260903081534 | 16 | 258 | 12.9 | 25.7 | 0.00 | 0.00 | 0.00 | 79 | 1018.6 |
| 20260903080031 | 16 | 244 | 12.9 | 29.0 | 0.00 | 0.00 | 0.00 | 78 | 1018.6 |
| 20260903074531 | 15 | 255 | 8.0 | 29.0 | 0.00 | 0.00 | 0.00 | 78 | 1018.6 |
| 20260903073028 | 15 | 228 | 9.7 | 22.5 | 0.00 | 0.00 | 0.00 | 77 | 1018.4 |
| 20260903071529 | 15 | 261 | 6.4 | 22.5 | 0.00 | 0.00 | 0.00 | 76 | 1018.5 |
| 20260903070023 | 15 | 227 | 6.4 | 24.1 | 0.00 | 0.00 | 0.00 | 76 | 1018.5 |
| 20260903064520 | 15 | 252 | 8.0 | 22.5 | 0.00 | 0.00 | 0.00 | 76 | 1018.6 |
| 20260903063020 | 15 | 262 | 6.4 | 20.9 | 0.00 | 0.00 | 0.00 | 76 | 1018.6 |
| 20260903061532 | 14 | 258 | 8.0 | 19.3 | 0.00 | 0.00 | 0.00 | 76 | 1018.7 |
| 20260903060014 | 14 | 272 | 9.7 | 22.5 | 0.00 | 0.00 | 0.00 | 76 | 1018.5 |
| 20260903054514 | 14 | 236 | 9.7 | 22.5 | 0.00 | 0.00 | 0.00 | 76 | 1018.5 |
| 20260903053010 | 14 | 259 | 8.0 | 20.9 | 0.00 | 0.00 | 0.00 | 76 | 1018.5 |
| 20260903051509 | 14 | 258 | 8.0 | 25.7 | 0.00 | 0.00 | 0.00 | 76 | 1018.4 |
| 20260903050008 | 14 | 247 | 8.0 | 25.7 | 0.00 | 0.00 | 0.00 | 76 | 1018.6 |
| 20260903044505 | 13 | 231 | 9.7 | 20.9 | 0.00 | 0.00 | 0.00 | 78 | 1018.3 |
| 20260903043002 | 13 | 246 | 9.7 | 16.1 | 0.00 | 0.00 | 0.00 | 79 | 1018.3 |
| 20260903041501 | 13 | 233 | 6.4 | 12.9 | 0.00 | 0.00 | 0.00 | 80 | 1018.4 |
| 20260903040059 | 13 | 213 | 6.4 | 20.9 | 0.00 | 0.00 | 0.00 | 81 | 1018.6 |
| 20260903034558 | 13 | 223 | 4.8 | 14.5 | 0.00 | 0.00 | 0.00 | 81 | 1018.9 |
| 20260903033055 | 13 | 244 | 4.8 | 19.3 | 0.00 | 0.00 | 0.00 | 80 | 1019.3 |
| 20260903031556 | 13 | 283 | 8.0 | 17.7 | 0.00 | 0.00 | 0.00 | 80 | 1019.2 |
| 20260903030054 | 13 | 266 | 6.4 | 16.1 | 0.00 | 0.00 | 0.00 | 81 | 1019.1 |
| 20260903024554 | 13 | 251 | 4.8 | 16.1 | 0.00 | 0.00 | 0.00 | 81 | 1019.1 |
| 20260903023052 | 13 | 259 | 4.8 | 16.1 | 0.00 | 0.00 | 0.00 | 81 | 1019.2 |
| 20260903021551 | 13 | 242 | 4.8 | 14.5 | 0.00 | 0.00 | 0.00 | 81 | 1019.5 |
| 20260903020053 | 13 | 259 | 3.2 | 11.3 | 0.00 | 0.00 | 0.00 | 81 | 1019.5 |
| 20260903014606 | 13 | 238 | 3.2 | 14.5 | 0.00 | 0.00 | 0.00 | 80 | 1019.7 |
| 20260903013059 | 13 | 238 | 4.8 | 14.5 | 0.00 | 0.00 | 0.00 | 81 | 1019.9 |
| 20260903011611 | 13 | 278 | 4.8 | 12.9 | 0.00 | 0.00 | 0.00 | 81 | 1019.9 |
| 20260903010058 | 12 | 184 | 3.2 | 12.9 | 0.00 | 0.00 | 0.00 | 82 | 1019.9 |
| 20260903004541 | 12 | 246 | 4.8 | 11.3 | 0.00 | 0.00 | 0.00 | 83 | 1019.9 |
| 20260903003044 | 12 | 256 | 3.2 | 8.0 | 0.00 | 0.00 | 0.00 | 83 | 1020.1 |
| 20260903001549 | 12 | 238 | 3.2 | 11.3 | 0.00 | 0.00 | 0.00 | 83 | 1020.2 |
| 20260903000036 | 12 | 220 | 1.6 | 8.0 | 0.00 | 0.00 | 0.00 | 82 | 1020.3 |